This is the latest recevied weather packets stored in our database for station/object WA1TYB-13. If no packets are shown the sender has not sent any weather packets the latest 10 day(s).
| Time | Temp. | Humidity | Pressure | Rain* | Wind** | Luminosity | Snow |
|---|---|---|---|---|---|---|---|
| 1778134981 | 14.44° C | 56% | 1012.9 hPa | 0 mm | - | 0 W/m² | - |
| 1778134679 | 14.44° C | 54% | 1013 hPa | 0 mm | - | 0 W/m² | - |
| 1778134376 | 14.44° C | 55% | 1013.6 hPa | 0 mm | - | 0 W/m² | - |
| 1778134075 | 13.89° C | 56% | 1013.1 hPa | 0 mm | - | 0 W/m² | - |
| 1778133771 | 15.56° C | 48% | 1013 hPa | 0 mm | - | 0 W/m² | - |
| 1778133467 | 15° C | 49% | 1013.2 hPa | 0 mm | - | 0 W/m² | - |
| 1778133163 | 15° C | 52% | 1013.2 hPa | 0 mm | - | 0 W/m² | - |
| 1778132859 | 15.56° C | 50% | 1013.2 hPa | 0 mm | - | 0 W/m² | - |
| 1778132556 | 16.11° C | 43% | 1012.9 hPa | 0 mm | - | 0 W/m² | - |
| 1778132253 | 16.11° C | 45% | 1012.7 hPa | 0 mm | - | 0 W/m² | - |
| 1778131951 | 16.67° C | 44% | 1012.7 hPa | 0 mm | - | 0 W/m² | - |
| 1778131650 | 17.22° C | 37% | 1012.4 hPa | 0 mm | - | 0 W/m² | - |
| 1778131346 | 16.67° C | 39% | 1012.6 hPa | 0 mm | - | 0 W/m² | - |
| 1778131044 | 16.11° C | 39% | 1012.5 hPa | 0 mm | - | 0 W/m² | - |
| 1778130740 | 15.56° C | 43% | 1012.5 hPa | 0 mm | - | 0 W/m² | - |
| 1778130437 | 15.56° C | 45% | 1012.9 hPa | 0 mm | - | 0 W/m² | - |
| 1778130134 | 15.56° C | 46% | 1012.9 hPa | 0 mm | - | 0 W/m² | - |
| 1778129831 | 16.11° C | 44% | 1013 hPa | 0 mm | - | 0 W/m² | - |
| 1778129527 | 15.56° C | 44% | 1012.6 hPa | 0 mm | - | 0 W/m² | - |
| 1778129224 | 16.11° C | 43% | 1013 hPa | 0 mm | - | 0 W/m² | - |
| 1778128921 | 16.67° C | 42% | 1012.9 hPa | 0 mm | - | 0 W/m² | - |
| 1778128617 | 16.67° C | 40% | 1013 hPa | 0 mm | - | 0 W/m² | - |
| 1778128314 | 17.22° C | 38% | 1012.5 hPa | 0 mm | - | 0 W/m² | - |
| 1778128010 | 17.22° C | 38% | 1012.5 hPa | 0 mm | - | 0 W/m² | - |
| 1778127705 | 17.22° C | 38% | 1012.1 hPa | 0 mm | - | 0 W/m² | - |
* Rain latest hour (hover to see other rain measurements)
** Current wind speed in m/s (hover to see current wind gust speed)